Weather in Tuloksa

Russia / Republic of Karelia     61°07′17″N   32°37′20″E
temp.,
°C
wind,
m/s
gust,
m/s
humid.,
%
clouds,
%
prec.,
mm/h
press.,
hPa
HPBL,
m
21 january, fri
fri2100:00−1ssw61197100 0.9 987357
03:00−2s61191100 1.4 989270
06:00−4s3897100 0.1 991171
09:00−6sse3399100 0.2 99426
12:00−7ese2210095 0.0 99632
15:00−8ene2210093 0.0 99815
18:00−8ne3699100 0.0 100081
21:00−3nne5894100 0.1 1002338
22 january, sat
sat2200:00−4nne5993100 0.0 1004236
03:00−6nne61192100 0.0 1006268
06:00−6nne61195100 0.6 1007439
09:00−5ne5995100 1.1 1009434
12:00−7ene469513 0.1 1012140
15:00−9ne359640 0.1 1015107
18:00−12ne4698100 0.0 101886
21:00−14ene479713 0.0 102091
23 january, sun
sun2300:00−16ene3510062 0.0 102274
03:00−18ene2310080 0.0 102442
06:00−19e3310084 0.0 102642
09:00−19se1210088 0.0 102837
12:00−18se2210091 0.0 103064
15:00−16sse349983 0.0 103179
18:00−16sse3510094 0.0 103269
21:00−13s4710090 0.0 1032106
24 january, mon
mon2400:00−13s589899 0.0 1032133
03:00−12s6109787 0.0 1032197
06:00−11s7139473 0.0 1030260
09:00−11s7139349 0.0 1029263
12:00−10s8169012 0.0 1028337
15:00−8s10188596 0.0 1025414
18:00−7s101883100 0.0 1023448
21:00−7s101785100 0.1 1021551
25 january, tue
tue2500:00−7ssw101794100 1.1 1019578
03:00−6ssw91595100 2.8 1017568
06:00−6ssw71295100 2.3 1016514
09:00−6s5995100 3.6 1016426
12:00−6s5795100 0.3 1017297
15:00−6s3494100 0.4 1018192
18:00−7sse1194100 0.0 101928
21:00−7e1195100 0.1 102126